Location: Newark
(35.2672°N, 80.7344°W)
Time: 21:59:40
(UTC+00:00)

Tiros 1 - Pass Details

Date: 25 January 2020
Orbit: 631 x 664 km, 48.4° (Epoch: 19 February)

Event Time Altitude Azimuth Distance (km) Brightness Sun altitude
Rises 19:09:49 0° 273° (W) 2,936 10.8 31.3°
Reaches altitude 10° 19:12:32 10° 288° (WNW) 2,035 9.9 31.1°
Maximum altitude 19:16:18 23° 341° (NNW) 1,361 8.7 30.7°
Drops below altitude 10° 19:20:06 10° 35° (NE) 2,056 9.3 30.4°
Sets 19:22:53 0° 50° (NE) 2,975 10.1 30.1°
